Home > Time Zones > World Clock > Weather > Sweden > Lund > Past weeks

Flag for Sweden Weather past 2 weeks in Lund, Sweden

Now
59 °F

Fog.


Feels Like: 59 °F
Forecast: 55 / 64 °F
Wind: 2 mph from East

Location: Malmo / Sturup

Current Time: Sep 20, 2014 at 10:22:48 PM

Latest Report: Sep 20, 2014 at 9:50 PM


Visibility: 2 mi

Pressure: 29.92 "Hg

Humidity: 94%

Dew point: 57 °F

Location of LundLocation

Historic Weather in Lund — Graph

°F

Lund temperature yesterday

Maximum temperature yesterday: 70 °F (at 1:20 PM)
Minimum temperature yesterday: 54 °F (at 11:50 PM)
Average temperature yesterday: 62 °F

Past Weeks' High & Low Weather Summary

 TemperatureHumidityPressure
High72 °F (Sep 6, 1:20 PM)100% (Sep 7, 4:50 AM)30.27 "Hg (Sep 7, 4:50 AM)
Low48 °F (Sep 10, 4:50 AM)53% (Sep 6, 1:20 PM)29.83 "Hg (Sep 9, 5:50 PM)
Average60 °F85%30.08 "Hg
* Reported Sep 5 9:20 PM — Sep 20 9:20 PM, Lund, Weather by CustomWeather, © 2014

Note: Actual official high and low records may vary slightly from our data, if they occured in-between our weather recording intervals... More about our weather records

Advertising

Lund weather history for previous 24 hours

 ConditionsComfort  
Time TempWeatherWind HumidityBarometerVisibility
9:20 PM
Sep 20
59 °FFog.2 mph94%29.92 "Hg2 mi
8:50 PM61 °FFog.3 mph88%29.92 "Hg2 mi
8:20 PM61 °FFog.3 mph88%29.92 "Hg3 mi
7:50 PM61 °FFog.5 mph94%29.92 "Hg4 mi
3:20 PM68 °FPartly sunny.5 mph73%29.95 "HgN/A
2:50 PM68 °FScattered clouds.5 mph69%29.95 "HgN/A
2:20 PM68 °FFog.6 mph69%29.95 "Hg6 mi
1:50 PM68 °FFog.5 mph73%29.95 "Hg6 mi
1:20 PM68 °FFog.5 mph73%29.95 "Hg6 mi
12:50 PM66 °FFog.6 mph78%29.95 "Hg6 mi
12:20 PM63 °FFog.7 mph83%29.95 "Hg5 mi
11:50 AM63 °FFog.7 mph83%29.95 "Hg5 mi
11:20 AM63 °FFog.7 mph88%29.98 "Hg4 mi
10:50 AM59 °FFog.8 mph94%29.98 "Hg3 mi
10:20 AM59 °FFog.6 mph94%29.98 "Hg2 mi
9:50 AM57 °FFog.7 mph100%29.98 "Hg2 mi
9:20 AM57 °FFog.9 mph100%29.95 "Hg1 mi
8:50 AM57 °FFog.8 mph100%29.98 "Hg1 mi
8:20 AM55 °FFog.9 mph100%29.98 "Hg1 mi
7:50 AM55 °FFog.8 mph100%29.95 "Hg1 mi
7:20 AM55 °FFog.6 mph100%29.95 "Hg1 mi
6:50 AM55 °FFog.6 mph100%29.95 "Hg1 mi
6:20 AM55 °FFog.6 mph100%29.95 "Hg1 mi
5:50 AM55 °FFog.5 mph94%29.95 "Hg1 mi
5:20 AM55 °FFog.6 mph94%29.95 "Hg1 mi
4:50 AM54 °FFog.5 mph100%29.98 "Hg1 mi
4:20 AM54 °FFog.6 mph100%29.98 "Hg1 mi
3:20 AM52 °FFog.6 mph100%29.98 "Hg1 mi
2:50 AM50 °FFog.3 mph100%29.98 "Hg2 mi
1:50 AM48 °FFog.3 mph100%29.98 "Hg3 mi
1:20 AM48 °FFog.2 mph100%29.98 "Hg4 mi
12:50 AM50 °FFog.2 mph94%29.98 "Hg4 mi
12:20 AM52 °FFog.3 mph94%29.98 "Hg1 mi
11:50 PM
Sep 19
54 °FFog.3 mph94%29.98 "Hg2 mi
11:20 PM55 °FFog.2 mph94%29.98 "Hg3 mi
10:50 PM55 °FFog.3 mph94%29.98 "Hg3 mi
10:20 PM55 °FFog.2 mph94%29.98 "Hg4 mi
Weather by CustomWeather, © 2014

See weather overviewHow to use our weather pages